Regional Weather Roundup
Issued by NWS

Home | Current Version | Previous Version | Graphics & Text | Print | Product List | Glossary On
Versions: 1 2 3 4 5 6 7 8 9 10 11 12 13 14 15 16 17 18 19 20 21 22 23 24 25 26 27 28 29 30 31 32 33 34 35 36 37 38 39 40 41 42 43 44 45 46 47 48 49 50
000
ASUS43 KMKX 021311
RWRWI

WISCONSIN REGIONAL WEATHER ROUNDUP
NATIONAL WEATHER SERVICE MILWAUKEE/SULLIVAN WI
800 AM CDT MON MAY 02 2016

NOTE: "FAIR" INDICATES FEW OR NO CLOUDS BELOW 12,000 FEET WITH NO
SIGNIFICANT WEATHER AND/OR OBSTRUCTIONS TO VISIBILITY.

WIZ001-002-006>008-014>016-023>028-021400-
NORTHWEST WISCONSIN

CITY           SKY/WX    TMP DP  RH WIND       PRES   REMARKS
SUPERIOR ARPT  SUNNY     39  37  91 CALM      30.15F
ASHLAND        SUNNY     39  36  89 CALM      30.15S
HAYWARD        SUNNY     41  34  76 CALM      30.12F
SIREN          SUNNY     42  35  77 CALM      30.13S
CUMBERLAND     SUNNY     43  36  75 CALM      30.12S
RICE LAKE      SUNNY     44  36  71 CALM      30.14S
CHETEK         SUNNY     46  37  73 CALM      30.12S
LADYSMITH      SUNNY     44  37  78 CALM      30.14S
EAU CLAIRE     SUNNY     48  38  68 CALM      30.11S
MENOMONIE      SUNNY     46  38  73 CALM      30.11F
NEW RICHMOND   MOSUNNY   45  38  77 CALM      30.12S
OSCEOLA        MOSUNNY   41  39  93 CALM      30.15S
$$

WIZ003>005-009-010-017-018-021400-
NORTH CENTRAL WISCONSIN

CITY           SKY/WX    TMP DP  RH WIND       PRES   REMARKS
MANITOWISH WTR MOSUNNY   43  36  76 CALM      30.12F
ARBOR VITAE    SUNNY     45  34  67 CALM      30.12F
WOODRUFF       SUNNY     45  34  67 CALM      30.12F
RHINELANDER    SUNNY     45  33  63 CALM      30.13S
EAGLE RIVER    SUNNY     41  33  71 CALM      30.12F
LAND O LAKES   SUNNY     42  32  67 CALM      30.13S
PHILLIPS       SUNNY     43  36  75 CALM      30.12S
TOMAHAWK       SUNNY     42  37  83 CALM      30.13S
MEDFORD        SUNNY     44  37  76 CALM      30.12S
MERRILL        SUNNY     41  36  81 CALM      30.13S
$$

WIZ029-030-035-036-043>047-021400-
CENTRAL WISCONSIN

CITY           SKY/WX    TMP DP  RH WIND       PRES   REMARKS
WAUSAU         SUNNY     46  35  65 CALM      30.11S
MOSINEE        SUNNY     43  36  75 CALM      30.13S
MARSHFIELD     SUNNY     49  37  63 NE5       30.11S
STEVENS POINT  SUNNY     43  32  65 N3        30.12F
WAUPACA        SUNNY     46  36  68 N5        30.12S
WAUTOMA        SUNNY     47  34  60 NE7       30.12S
WISC RAPIDS    SUNNY     48  34  58 NE5       30.13F
CAMP DOUGLAS   SUNNY     43  43 100 CALM      30.11F
$$

WIZ011>013-019>022-031-037>040-048>050-021400-
NORTHEAST WISCONSIN

CITY           SKY/WX    TMP DP  RH WIND       PRES   REMARKS
ANTIGO         SUNNY     42  36  79 CALM      30.12F
SHAWANO        SUNNY     46  36  67 CALM      30.12F
OCONTO         SUNNY     46  35  64 N7        30.11S
STURGEON BAY   SUNNY     43  34  70 N7        30.13S
GREEN BAY      SUNNY     47  36  65 N7        30.11F
MANITOWOC      SUNNY     47  37  68 NW10      30.11R
APPLETON       SUNNY     45  34  65 N8        30.10S
CLINTONVILLE   SUNNY     45  34  65 N7        30.11F
OSHKOSH        SUNNY     46  35  65 N7        30.10F
$$

WIZ032>034-041-042-053>061-021400-
SOUTHWEST WISCONSIN

CITY           SKY/WX    TMP DP  RH WIND       PRES   REMARKS
LA CROSSE      SUNNY     44  38  79 SE3       30.13R
SPARTA         SUNNY     39  37  90 CALM      30.13S
VIROQUA        SUNNY     46  41  82 NE5       30.11S
BOSCOBEL       FOG       38  37  97 CALM      30.13R VSB 1/2
PRAIRIE DU CHI FOG       41  39  95 CALM      30.13S VSB<1/4
PLATTEVILLE    SUNNY     47  44  88 N7        30.10S
$$

WIZ056-057-062-063-064-067-068-021400-
SOUTH CENTRAL WISCONSIN

CITY           SKY/WX    TMP DP  RH WIND       PRES   REMARKS
REEDSBURG      SUNNY     41  38  91 CALM      30.11S
BARABOO/DELLS  SUNNY     42  39  89 N3        30.11S
LONE ROCK      SUNNY     41  39  93 W7        30.12S
MINERAL POINT  SUNNY     46  43  87 N6        30.10S
MADISON        SUNNY     46  40  79 N7        30.09S
MIDDLETON      SUNNY     47  41  79 N5        30.11R
WATERTOWN      SUNNY     47  40  77 N5        30.08S
MONROE         SUNNY     46  41  81 N8        30.08S
JANESVILLE     SUNNY     48  39  71 NE6       30.08R
$$

WIZ051-052-058>065-066-070>072-021400-
SOUTHEAST WISCONSIN

CITY           SKY/WX    TMP DP  RH WIND       PRES   REMARKS
MILWAUKEE      MOSUNNY   47  38  71 N12       30.08R
WAUKESHA       SUNNY     45  36  70 N3        30.09R
MILWAUKEE/TIMM SUNNY     46  34  61 NE6       30.08S
RACINE         SUNNY     47  38  71 N12       30.09R
BURLINGTON     SUNNY     46  38  76 NE7       30.07S
KENOSHA        SUNNY     48  40  73 NE8       30.08R
FOND DU LAC    SUNNY     47  39  74 N8        30.10S
SHEBOYGAN      SUNNY     47  37  68 N8        30.08F
WEST BEND      SUNNY     46  36  66 CALM      30.08S
JUNEAU         SUNNY     45  40  82 N8        30.09S
$$

LSZ147-162-021400-
LAKE SUPERIOR

STATION/POSITION TIME  TEMP    WIND        PRES    WAVE
                       AIR SEA DIR/SP/G            HT/PER
                 (UTC) (F)     (DEG/KT/KT) (MB)    (FT/S)
W MID LAKE BUOY  1250   35 37  260/  4/  4 1021.6R   1
DEVILS ISLAND    1300   38     240/  4/  5 1021.5F
SAXON HARBOR     1200   31     200/  4/  5 1020.7R
$$

LMZ867-665-643>646-021400-
LAKE MICHIGAN

STATION/POSITION TIME  TEMP    WIND        PRES    WAVE
                       AIR SEA DIR/SP/G            HT/PER
                 (UTC) (F)     (DEG/KT/KT) (MB)    (FT/S)
CHAMBERS ISLAND  1240   46     320/  4/  8 1019.6S
N MID LAKE BUOY  1250   39 38  330/  6/  6 1019.2S   0
NORTHPORT PIER   1200   41     310/ 11/ 14 1019.0S
KEWAUNEE LAKESHO 1200   42     290/  4/  5 1018.5R
SHEBOYGAN LAKESH 1300   45     350/ 11/ 12 1019.4F
PORT WASHINGTON  1200   46     330/  4/  8 1019.6R
S MID LAKE BUOY  1250   43 40   40/  8/  8 1018.1R   1/ 4
KENOSHA   LAKESH 1300   44      20/ 10/ 10 1018.3R
$$

TC  - TEMPERATURE IN CELSIUS
VSB - VISIBILITY IN STATUTE MILES
WCI - WIND CHILL INDEX
HX  - HEAT INDEX





USA.gov is the U.S. government's official web portal to all federal, state and local government web resources and services.